アイソン彗星

C/2012 S1 ( ISON )

English version
Home page
Updated on April 29, 2013

---------------------------------------------------------------------

・ プロフィール

発見日 2012年9月21日
発見光度 18.8等
発見者 Vitali Nevski (Vitebsk, Belarus) and Artyom Novichonok (Kondopoga, Russia), International Scientific Optical Network (ISON) near Kislovodsk, Russia

・ 写真集

・ 軌道要素

Epoch 2013 Dec. 14.0 TT = JDT 2456640.5
T 2013 Nov. 28.76704 TT                                 MPC
q   0.0124434            (2000.0)            P               Q
z  -0.0001759      Peri.  345.56410     +0.31512503     +0.51248003
 +/-0.0000025      Node   295.65398     -0.75894534     -0.36927098
e   1.0000022      Incl.   62.39187     -0.56982294     +0.77524393
From 3121 observations 2011 Dec. 28-2013 Mar. 23, mean residual 0".4.

・ 星図

・ 光度変化

        m1 = 5.5 + 5 logΔ + 10.0 log r

---------------------------------------------------------------------

軌道要素はM.P.E.C. 2013-F47に掲載されたものです。
星図はステラナビゲータ Ver.8 (アストロアーツ) で作成したものです。
光度グラフはComet for Windowsで作成したものです。

---------------------------------------------------------------------

Copyright(C) Seiichi Yoshida (comet@aerith.net). All rights reserved.